Location: Governador Valadares
(18.8500°S, 41.9330°W)
Time: 01:00:14
(UTC-03:00)

Hubble Space Telescope - Visible Passes

Search period start: 21 June 2024 00:00
Search period end: 01 July 2024 00:00
Orbit: 510 x 514 km, 28.5° (Epoch: 20 June)

Date Brightness Start Highest point End Pass type
(mag) Time Alt. Az. Time Alt. Az. Time Alt. Az.
21 Jun 1.7 18:29:50 10° W 18:33:31 34° SSW 18:34:50 27° SSE visible
22 Jun 1.9 18:10:52 10° WSW 18:14:28 31° SSW 18:16:50 18° SE visible
23 Jun 2.0 17:51:53 10° WSW 17:55:24 29° SSW 17:58:49 11° SE visible
23 Jun 3.7 19:33:34 10° SW 19:33:37 10° SW 19:33:37 10° SW visible
24 Jun 3.1 19:14:31 10° SW 19:15:36 15° SW 19:15:36 15° SW visible
25 Jun 2.6 18:55:27 10° SW 18:57:36 19° SSW 18:57:36 19° SSW visible
26 Jun 2.3 18:36:21 10° SW 18:39:25 21° S 18:39:37 21° S visible
27 Jun 2.3 18:17:13 10° SW 18:20:20 21° S 18:21:41 18° SSE visible
28 Jun 2.2 17:58:03 10° SW 18:01:15 22° S 18:03:48 13° SE visible
28 Jun 3.6 19:38:20 10° WSW 19:38:37 12° SW 19:38:37 12° SW visible
29 Jun 2.6 19:19:08 10° WSW 19:20:50 23° SW 19:20:50 23° SW visible
30 Jun 1.1 18:59:56 10° WSW 19:03:10 52° SSW 19:03:10 52° SSW visible
